Weather History for KBCE - October, 2012

Change the Weather History Date:

Tuesday, October 23, 2012

  Actual Average Record
Temperature  
Mean Temperature 47 °F -  
Max Temperature 57 °F 54 °F 71 °F (2003)
Min Temperature 39 °F 25 °F 8 °F (1984)
Degree Days  
Heating Degree Days 18    
Moisture  
Dew Point 21 °F    
Average Humidity 39    
Maximum Humidity 65    
Minimum Humidity 19    
Precipitation  
Precipitation 0.00 in - - ()
Sea Level Pressure  
Sea Level Pressure 29.73 in    
Wind  
Wind Speed 18 mph (SSW)    
Max Wind Speed 28 mph    
Max Gust Speed 45 mph    
Visibility 10 miles    
Events      
Averages and records for this station are not official NWS values.
T = Trace of Precipitation, MM = Missing Value Source: NWS Daily Summary

Daily Weather History Graph

Daily Weather History Graph

Search for Another Location

Airport or City:

Trip Planner

Search our weather history database for the weather conditions in past years. The results will help you decide how hot, cold, wet, or windy it might be!

Date:

Astronomy

Oct. 23, 2012 Rise Set
Actual Time 7:45 AM MDT 6:39 PM MDT
Civil Twilight 7:18 AM MDT 7:06 PM MDT
Nautical Twilight 6:47 AM MDT 7:37 PM MDT
Astronomical Twilight 6:17 AM MDT 8:07 PM MDT
Moon 3:19 PM MDT (10/23) 1:47 AM MDT (10/23)
Length of Visible Light 11h 48m
Length of Day
10h 54m
Waxing Gibbous, 67% of the Moon is Illuminated
Oct 23
Waxing Gibbous
Oct 29
Full
Nov 6
Last Quarter
Nov 13
New
Nov 20
First Quarter

Hourly Weather History & Observations

Time (MDT) Temp. Windchill Dew Point Humidity Pressure Visibility Wind Dir Wind Speed Gust Speed Precip Events Conditions
12:53 AM 45.0 °F 37.4 °F 32.0 °F 60% 29.70 in 10.0 mi SSW 18.4 mph 31.1 mph N/A   Clear
1:53 AM 45.0 °F 36.0 °F 30.9 °F 58% 29.70 in 10.0 mi SSW 25.3 mph 38.0 mph N/A   Clear
2:53 AM 44.1 °F 35.0 °F 30.0 °F 58% 29.67 in 10.0 mi SSW 24.2 mph 39.1 mph N/A   Clear
3:53 AM 44.1 °F 35.2 °F 30.0 °F 58% 29.69 in 10.0 mi SW 23.0 mph 34.5 mph N/A   Clear
4:53 AM 43.0 °F 32.9 °F 30.0 °F 60% 29.68 in 10.0 mi SW 27.6 mph 41.4 mph N/A   Clear
5:53 AM 42.1 °F 31.9 °F 28.9 °F 60% 29.68 in 10.0 mi SW 26.5 mph 44.9 mph N/A   Clear
6:53 AM 41.0 °F 34.7 °F 28.0 °F 60% 29.73 in 10.0 mi SSW 10.4 mph 23.0 mph N/A   Clear
7:53 AM 39.0 °F - 28.0 °F 65% 29.76 in 10.0 mi Calm Calm - N/A   Partly Cloudy
9:53 AM 45.0 °F 40.1 °F 28.0 °F 52% 29.78 in 10.0 mi SE 9.2 mph - N/A   Clear
10:53 AM 48.9 °F - 21.0 °F 33% 29.75 in 10.0 mi South 12.7 mph 21.9 mph N/A   Clear
12:53 PM 53.1 °F - 17.1 °F 24% 29.74 in 10.0 mi SSW 26.5 mph 32.2 mph N/A   Clear
1:34 PM 53.6 °F - 24.8 °F 33% 29.97 in 10.0 mi SW 9.2 mph - N/A   Clear
1:53 PM 55.9 °F - 18.0 °F 23% 29.68 in 10.0 mi SW 20.7 mph 28.8 mph N/A   Clear
2:53 PM 55.9 °F - 14.0 °F 19% 29.68 in 10.0 mi SW 20.7 mph 28.8 mph N/A   Clear
3:53 PM 55.9 °F - 14.0 °F 19% 29.67 in 10.0 mi SSW 21.9 mph 33.4 mph N/A   Clear
5:53 PM 52.0 °F - 12.0 °F 20% 29.69 in 10.0 mi SW 18.4 mph 32.2 mph N/A   Clear
6:53 PM 48.9 °F - 15.1 °F 26% 29.72 in 10.0 mi SSW 9.2 mph 21.9 mph N/A   Clear
7:53 PM 48.0 °F - 14.0 °F 26% 29.75 in 10.0 mi SSE 9.2 mph - N/A   Clear
8:53 PM 46.9 °F - 10.9 °F 23% 29.73 in 10.0 mi South 10.4 mph - N/A   Clear
9:53 PM 46.0 °F 41.9 °F 10.9 °F 24% 29.74 in 10.0 mi South 8.1 mph - N/A   Clear
10:53 PM 39.0 °F 34.0 °F 12.9 °F 34% 29.75 in 10.0 mi South 6.9 mph - N/A   Clear
11:53 PM 39.9 °F 35.8 °F 12.9 °F 33% 29.74 in 10.0 mi Variable 5.8 mph - N/A   Clear